sat.trackr.live / text

‹ back to catalog

STARLINK-5945

NORAD 56018 · 2023-042AJ

PAYLOAD ACTIVE UNKNOWN

§ Identity

Operator
Country
US
Launch date
2023-03-24
Launch site
AFETR
Launch vehicle
Mass (kg)
RCS (m²)

Purposes: comms

External: N2YO · Heavens-Above · Gunter

§ Orbital elements

Epoch: 2026-05-24T22:30:57.969216Z

Period
94.27 min
Inclination
43.0021°
Eccentricity
0.0001595
Mean motion
15.27577794 rev/d
Perigee alt
482.0 km
Apogee alt
484.2 km
Semi-major
6,861.2 km
B*
3.6108e-5
RAAN
334.8744°
Arg perigee
254.2430°
Mean anomaly
105.8246°
Rev number
17,469

§ Raw data

STARLINK-59451 56018U 23042AJ  26144.93817094  .00000731  00000+0  36108-4 0  99912 56018  43.0021 334.8744 0001595 254.2430 105.8246 15.27577794174692

JSON: /api/v1/satellites/56018 · /tle

For live sub-satellite position, see the globe view (requires WebGL).

§ Visibility from observer

Set your observer location to see the next 7 days of passes ≥ 10°. The values pass through the URL so the page stays shareable.

No JS? Fill the form by hand. The geolocation button needs JavaScript.